Tracking 29967 objects as of 5-Dec-2024
HD Live streaming from Space Station
objects crossing your sky now

USA 362

Track USA 362 now!
10-day predictions


NORAD ID: 59822
Int'l Code: 2024-096J
Perigee: 579.7 km
Apogee: 589.5 km
Inclination: 70.0 °
Period: 96.2 minutes
Semi major axis: 6955 km
RCS: Unknown
Launch date: May 22, 2024
Source: United States (US)
Launch site: AIR FORCE WESTERN TEST RANGE (AFWTR)
Your satellite tracking list
Your tracking list is empty




NASA's NSSDC Master Catalog

Two Line Element Set (TLE):
1 59822U 24096J   24251.80663102 0.00000000  00000-0  00000-0 0    00
2 59822  69.9973 139.6365 0007000  92.7682 267.2318 14.96589662    00
Source of the keplerian elements: McCants